Cosmos 1140 Rocket - Orbit

View from above orbital plane
View from above orbital plane
View from above satellite
View from above satellite

Ground track
Ground track

The orbit data is extracted from the following two-line orbital elements,

1 11574U 79089B   13139.44318281  .00000213  00000-0  75855-4 0  4578
2 11574 074.0713 087.7281 0015945 007.7846 131.7641 14.40000941762664
Epoch (UTC): 19 May 2013 10:38:10
Eccentricity: 0.0015945
inclination: 74.0713°
perigee height: 747 km
apogee height: 770 km
right ascension of ascending node: 87.7281°
argument of perigee: 7.7846°
revolutions per day: 14.40000941
mean anomaly at epoch: 131.7641°
orbit number at epoch: 76266

The dashed part of the orbit path shows where the satellite is in the earth's shadow,  

Developed and maintained by Chris Peat, Heavens-Above GmbH. Please read the updated FAQ before sending e-mail. Imprint. DLR